Volver al catálogo

STARLINK-5128

ActivoComunicacionesVLEO
NORAD 53998·PAYLOAD·🇺🇸 United States

Lanzado Oct 5, 2022 desde Vandenberg Space Force Base

Loading…

Próximos Pases (próximas 24 horas)

TLE

ActualizadoSource: CelesTrak SupGP

Época: Sep 15, 2026, 02:52 UTC

1 53998C 22125AL  26258.11993056  .00681940  00000+0  34637-1 0  2582
2 53998  53.1591  82.6721 0001293  88.5629   4.8357 15.16041052    12

Sigue STARLINK-5128 en tiempo real con AllMySat

Download on the App Store